This is the latest recevied weather packets stored in our database for station/object VK3XEM-13. If no packets are shown the sender has not sent any weather packets the latest 10 day(s).
| Time | Temp. | Humidity | Pressure | Rain* | Wind** | Luminosity | Snow |
|---|---|---|---|---|---|---|---|
| 1778034735 | 15° C | 62% | 1016.5 hPa | 0 mm | - | 200 W/m² | - |
| 1778033835 | 15° C | 62% | 1016.8 hPa | 0 mm | - | 149 W/m² | - |
| 1778032934 | 15° C | 61% | 1017.1 hPa | 0 mm | - | 126 W/m² | - |
| 1778032035 | 15° C | 61% | 1017.1 hPa | 0 mm | - | 129 W/m² | - |
| 1778031135 | 15° C | 61% | 1017.5 hPa | 0 mm | - | 140 W/m² | - |
| 1778030234 | 14.44° C | 61% | 1017.8 hPa | 0 mm | - | 173 W/m² | - |
| 1778029334 | 14.44° C | 60% | 1017.8 hPa | 0 mm | - | 144 W/m² | - |
| 1778028434 | 14.44° C | 60% | 1017.8 hPa | 0 mm | - | 203 W/m² | - |
| 1778027535 | 14.44° C | 61% | 1018.1 hPa | 0 mm | - | 200 W/m² | - |
| 1778026635 | 14.44° C | 63% | 1018.5 hPa | 0 mm | - | 166 W/m² | - |
| 1778025734 | 13.89° C | 65% | 1018.5 hPa | 0 mm | - | 146 W/m² | - |
| 1778024834 | 13.89° C | 66% | 1018.5 hPa | 0 mm | - | 117 W/m² | - |
| 1778023934 | 13.33° C | 66% | 1018.5 hPa | 0 mm | - | 99 W/m² | - |
| 1778023034 | 13.33° C | 67% | 1018.5 hPa | 0 mm | - | 90 W/m² | - |
| 1778022134 | 13.33° C | 68% | 1018.5 hPa | 0 mm | - | 91 W/m² | - |
| 1778021235 | 13.33° C | 68% | 1018.8 hPa | 0 mm | - | 84 W/m² | - |
| 1778020335 | 12.78° C | 70% | 1018.8 hPa | 0 mm | - | 58 W/m² | - |
| 1778019435 | 12.78° C | 70% | 1018.8 hPa | 0 mm | - | 45 W/m² | - |
| 1778018534 | 12.78° C | 71% | 1018.8 hPa | 0 mm | - | 28 W/m² | - |
| 1778017634 | 12.78° C | 71% | 1018.8 hPa | 0 mm | - | 18 W/m² | - |
| 1778016734 | 12.78° C | 71% | 1018.8 hPa | 0 mm | - | 9 W/m² | - |
| 1778015834 | 12.22° C | 71% | 1018.8 hPa | 0 mm | - | 4 W/m² | - |
| 1778014934 | 12.78° C | 70% | 1018.8 hPa | 0 mm | - | 1 W/m² | - |
| 1778014034 | 12.22° C | 71% | 1018.8 hPa | 0 mm | - | 0 W/m² | - |
| 1778013134 | 12.22° C | 71% | 1018.8 hPa | 0 mm | - | 0 W/m² | - |
* Rain latest hour (hover to see other rain measurements)
** Current wind speed in m/s (hover to see current wind gust speed)